Location: Ajagusi
(8.2000°N, 4.5500°E)
Time: 07:13:53
(UTC+00:00)

Daily predictions for brighter satellites

Satellite Brightness Start Highest point End
(mag) Time Altitude Azimuth Time Altitude Azimuth Time Altitude Azimuth
Geosat 4.0 17:35:11 10° NNE 17:40:12 88° ESE 17:45:14 10° SSW
Ariane H10+ 2.6 17:37:21 10° WSW 17:40:22 43° S 17:47:58 10° ESE
USA 229 DEB 4.2 17:35:03 10° NNW 17:42:46 81° WSW 17:50:33 10° SSE
USA 229 4.2 17:35:09 10° NNW 17:42:52 82° WSW 17:50:38 10° SSE
NOAA 11 4.3 17:39:35 10° SSE 17:44:53 52° ENE 17:50:09 10° N
Cosmos 1315 Rocket 3.3 17:41:25 10° SSE 17:45:03 37° E 17:48:40 10° NNE
Hubble Space Telescope 2.2 17:44:15 10° NNW 17:47:32 22° NNE 17:50:48 10° ENE
Cosmos 1953 Rocket 3.6 17:48:00 10° N 17:52:23 60° E 17:56:47 10° SSE
SWIFT 3.5 17:49:34 10° NW 17:53:18 29° NNE 17:56:37 12° ENE
NOSS 3-1 (A) 4.5 17:47:57 10° NNW 17:56:42 84° WSW 18:05:44 10° SSE
Cosmos 1980 Rocket 2.2 17:52:09 10° S 17:57:43 60° ESE 18:03:14 10° NNE
Delta 7925 Rocket 4.2 17:51:55 10° WSW 17:58:45 61° NNW 18:03:50 11° NE
FengYun 1-2 T 4.4 17:57:32 10° SSE 18:03:12 86° WSW 18:08:51 10° NNW
S3M 3.9 17:58:00 10° S 18:04:04 75° E 18:10:09 10° N
Okean O Rocket 3.9 18:07:37 10° SSW 18:11:25 28° W 18:15:10 10° NW
CZ-3B R/B 4.3 17:53:35 10° SSW 18:12:03 33° SE 18:16:00 18° E
YAOGAN 1 3.5 18:09:34 10° SE 18:13:05 25° ENE 18:16:36 10° NNE
Cosmos 1340 2.8 18:11:23 10° N 18:15:01 47° E 18:18:39 10° SSE
GPS 2-12 Rocket1 3.7 18:11:52 10° NW 18:15:58 37° NNE 18:18:01 24° ENE
Cosmos-2242 3.9 18:13:07 10° SSE 18:16:38 25° E 18:17:31 24° ENE
Cosmos 2297 Rocket 3.2 18:14:46 10° NNE 18:19:10 23° ENE 18:20:17 22° E
MOS 1 Rocket 3.5 18:14:29 10° NNE 18:19:31 86° E 18:24:50 10° S
Cosmos 1812 Rocket 3.5 18:15:16 10° S 18:19:43 81° E 18:24:07 10° N
Cosmos 1455 2.7 18:17:05 10° SSW 18:20:45 59° W 18:24:26 10° N
In-Cosmos 22 Rocket 4.2 18:16:32 10° N 18:21:56 59° E 18:27:28 10° SSE
GPS 2-14 Rocket1 4.0 18:18:32 10° NW 18:22:03 26° NNE 18:23:11 23° NE
USA 281 3.7 18:15:50 10° S 18:22:18 64° WSW 18:28:47 10° NNW
CZ-2C R/B 3.7 18:17:11 10° SE 18:22:31 38° ENE 18:27:49 10° N
Cosmos 2278 4.2 18:21:31 10° SSW 18:27:08 61° WNW 18:32:43 10° N
Cosmos 2322 Rocket 3.7 18:25:44 10° SE 18:28:14 17° ESE 18:28:14 17° ESE
Cosmos 1939 Rocket 3.4 18:25:54 10° S 18:29:54 60° WSW 18:33:50 10° NNW
SL-08 ROCKET BODY 4.4 18:25:56 10° N 18:32:00 61° E 18:38:06 10° SSE
Helios 1A Rocket 2.8 18:33:12 10° SSE 18:37:21 90° NNW 18:41:28 10° NNW
Timation 2 Rocket 4.1 18:31:11 10° N 18:37:57 68° ENE 18:44:46 10° SSE
Okean-O 2.6 18:40:34 10° S 18:45:00 84° W 18:49:25 10° NNW
Cosmos 2219 3.2 18:43:56 10° N 18:49:32 55° ENE 18:55:06 10° SSE
BREEZE-M DEB (TANK) 3.9 18:43:00 10° SSW 18:51:54 37° SE 18:52:23 36° SE
CZ-4 R/B 1.8 18:50:06 10° S 18:54:03 61° WSW 18:57:55 10° NNW
H-2A R/B 2.9 18:50:11 10° SSE 18:58:51 20° N 19:00:34 10° N
CZ-2C R/B 2.2 18:54:17 10° SW 18:57:26 39° S 18:57:26 39° S
ATLAS 3B CENTAUR R/B 4.4 18:54:30 10° S 18:59:55 24° SE 19:00:38 23° SE
Cosmos 192 4.4 18:59:10 10° S 19:03:22 64° SSE 19:03:22 64° SSE
CSL-04 Rocket 4.2 18:59:04 10° SSE 19:07:42 26° N 19:10:04 10° N
SL-16 R/B 2.3 18:59:38 10° S 19:04:35 58° SE 19:04:35 58° SE
Spelda 3.6 19:06:34 10° WSW 19:10:57 36° SSW 19:10:57 36° SSW
CZ-2C R/B 2.8 19:11:03 40° N 19:12:56 69° WNW 19:18:10 10° SSW
Cosmos 2058 4.2 19:17:22 38° WSW 19:17:22 38° WSW 19:20:43 10° SSW
Cosmos 2227 Rocket 3.6 19:17:36 10° NNW 19:19:56 26° NNW 19:19:56 26° NNW
Hubble Space Telescope 3.1 19:24:41 10° WNW 19:26:11 21° WNW 19:26:11 21° WNW
ARIANE 5 R/B 4.5 18:18:00 10° W 19:52:58 42° SSW 19:56:06 35° SSE
Centaur AC-72 4.3 19:30:38 10° W 20:02:43 52° N 20:02:54 52° N
Cosmos 2297 Rocket 4.1 19:58:24 10° NW 20:02:30 25° W 20:02:30 25° W
Cosmos 2322 Rocket 4.5 20:08:17 10° SW 20:10:07 19° WSW 20:10:07 19° WSW
